Location: Rounton
(54.4000°N, 1.3500°W)
Time: 23:14:26
(UTC+00:00)

Vanguard 3 - Pass Details

Date: 07 December 2021
Orbit: 508 x 3260 km, 33.3° (Epoch: 17 January)

Event Time Altitude Azimuth Distance (km) Brightness Sun altitude
Rises 04:53:17 0° 245° (WSW) 7,090 - -27.4°
Reaches altitude 10° 04:58:33 10° 238° (WSW) 6,176 - -26.6°
Exits shadow 05:01:40 16° 232° (SW) 5,666 11.0 -26.2°
Maximum altitude 05:15:07 36° 182° (S) 4,156 10.7 -24.2°
Drops below altitude 10° 05:28:34 10° 125° (SE) 5,040 12.1 -22.3°
Sets 05:32:20 0° 116° (ESE) 5,701 12.8 -21.7°
